Location: Goll?ig?dem
(16.6773°N, 80.7332°E)
Time: 23:51:17
(UTC+00:00)

Cosmos 1602 Rocket - Pass Details

Date: 19 May 2025
Orbit: 597 x 627 km, 82.5° (Epoch: 18 June)

Event Time Altitude Azimuth Distance (km) Brightness Sun altitude
Rises 14:19:48 0° 4° (N) 2,841 7.3 -17.8°
Reaches altitude 10° 14:22:04 10° 9° (N) 1,935 6.3 -18.2°
Maximum altitude 14:26:12 48° 84° (E) 778 3.7 -19.1°
Enters shadow 14:26:45 45° 110° (ESE) 812 3.7 -19.2°
